sat.trackr.live / text

‹ back to catalog

CHECKMATE 5

NORAD 56163 · 2023-050B

PAYLOAD ACTIVE UNKNOWN

§ Identity

Operator
Country
US
Launch date
2023-04-02
Launch site
AFWTR
Launch vehicle
Mass (kg)
RCS (m²)

External: N2YO · Heavens-Above · Gunter

§ Orbital elements

Epoch: 2026-05-25T03:36:01.872288Z

Period
103.97 min
Inclination
81.0000°
Eccentricity
0.0007149
Mean motion
13.84980204 rev/d
Perigee alt
941.0 km
Apogee alt
951.5 km
Semi-major
7,324.4 km
B*
7.0914e-5
RAAN
93.6581°
Arg perigee
30.1460°
Mean anomaly
330.0106°
Rev number
15,897

§ Raw data

CHECKMATE 51 56163U 23050B   26145.15002167  .00000091  00000+0  70914-4 0  99952 56163  81.0000  93.6581 0007149  30.1460 330.0106 13.84980204158971

JSON: /api/v1/satellites/56163 · /tle

For live sub-satellite position, see the globe view (requires WebGL).

§ Visibility from observer

Set your observer location to see the next 7 days of passes ≥ 10°. The values pass through the URL so the page stays shareable.

No JS? Fill the form by hand. The geolocation button needs JavaScript.